LiveATC.Net - Listen to live air traffic control over the Internet!
Airport/ARTCC Code
Frequency Search
(e.g., 124.400, 128.75)
Site-wide search
 


Browse Feeds
Top 50 Feeds
HF Oceanic Feeds
Coverage Map
Bad Weather Areas

LiveATC FAQ
Offer LiveATC feed
Contact LiveATC.net
Press Inquiries

LiveATC on iPhone
LiveATC on Android

Windows Phone
Windows 8/10

LiveATC Mobile
(Mobile browser)

ATC Audio Archives
Interesting Recordings

LiveATC Forums

Home Page
About LiveATC.net
Make a Donation
Terms of Use
Privacy Policy

Canadian Air Freqs

AIRMETs/SIGMETs

FAA Airport Status
NAS Status
Arrival Demand


Server Software By:
Icecast.org
Liquidsoap

Select an area of interest:
U.S. Feeds: Class B Airports | Class C Airports | Class D/Other Airports | ARTCC (Centers)
International Feeds: Canada | Europe | Oceania | Asia | South America | North/Central America | Africa
Misc Feeds: HF Feeds
Search by ICAO/IATA airport code:   (e.g., kbos, kjfk, lax, eham, etc.)


Currently Available Live Feeds: 2912
Status Updated: Sat Jul 24 2021 01:14:04 UTC


NOTICE

Unauthorized use prohibited. See LiveATC.net Terms of Service

North and Central America Airport Feeds

 

MDPP App/Dep (Archives)
Puerto Plata, Dominican Republic

Feed Status: UP
Listen in your browser - HTML5 player(in browser, HTML5)
Click here to listen with your own player(launches your MP3 player)

MDPP 240100Z 12010KT 9999 FEW018 27/26 Q1016

MDPP Flight Activity (Flightaware)

Listeners: 0 out of 1398 total

Puerto Plata Approach/Departure: 119.000

MDPP Ground/Center (Archives)
Puerto Plata, Dominican Republic

Feed Status: UP
Listen in your browser - HTML5 player(in browser, HTML5)
Click here to listen with your own player(launches your MP3 player)

MDPP 240100Z 12010KT 9999 FEW018 27/26 Q1016

MDPP Flight Activity (Flightaware)

Listeners: 0 out of 1398 total

Puerto Plata Ground: 121.900
Santo Domingo Center: 124.300

MDPP Ground/Tower/Center (Archives)
Puerto Plata, Dominican Republic

Feed Status: UP
Listen in your browser - HTML5 player(in browser, HTML5)
Click here to listen with your own player(launches your MP3 player)

MDPP 240100Z 12010KT 9999 FEW018 27/26 Q1016

MDPP Flight Activity (Flightaware)

Listeners: 0 out of 1398 total

Puerto Plata Ground: 121.900
Puerto Plata Tower: 118.000
Santo Domingo Center: 124.300

MDPP Tower (Archives)
Puerto Plata, Dominican Republic

Feed Status: UP
Listen in your browser - HTML5 player(in browser, HTML5)
Click here to listen with your own player(launches your MP3 player)

MDPP 240100Z 12010KT 9999 FEW018 27/26 Q1016

MDPP Flight Activity (Flightaware)

Listeners: 0 out of 1398 total

Puerto Plata Tower: 118.000

MMCU Twr/App (Archives)
Chihuahua, Mexico

Feed Status: UP
Listen in your browser - HTML5 player(in browser, HTML5)
Click here to listen with your own player(launches your MP3 player)

MMCU 240041Z 33005KT 10SM FEW030TCU BKN080 30/10 A3013 RMK 8/230 ISOL CI

MMCU Flight Activity (Flightaware)

Listeners: 2 out of 1398 total

Chihuahua Approach: 121.000
Chihuahua Tower: 118.400

MMGL Twr/App (Archives)
Guadalajara, Mexico

Feed Status: UP
Listen in your browser - HTML5 player(in browser, HTML5)
Click here to listen with your own player(launches your MP3 player)

MMGL 240044Z 12005KT 7SM BKN020CB BKN080 OVC300 25/13 A3025 RMK 8/367 BINOVC/DSNT PCPN W AC

MMGL Flight Activity (Flightaware)

Listeners: 9 out of 1398 total

Guadalajara Approach: 120.800
Guadalajara Tower: 118.100

MMHO App/Dep (Archives)
Hermosillo, Mexico

Feed Status: UP
Listen in your browser - HTML5 player(in browser, HTML5)
Click here to listen with your own player(launches your MP3 player)

MMHO 240040Z 34004KT 10SM BKN100 OVC200 35/21 A2998 RMK 8/027 ISOL SC DSNT CB NW

MMHO Flight Activity (Flightaware)

Listeners: 0 out of 1398 total

Hermosillo Approach/Departure: 121.400

MMHO Info (Archives)
Hermosillo, Mexico

Feed Status: UP
Listen in your browser - HTML5 player(in browser, HTML5)
Click here to listen with your own player(launches your MP3 player)

MMHO 240040Z 34004KT 10SM BKN100 OVC200 35/21 A2998 RMK 8/027 ISOL SC DSNT CB NW

MMHO Flight Activity (Flightaware)

Listeners: 0 out of 1398 total

Hermosillo Info: 122.300

MMHO Tower (Archives)
Hermosillo, Mexico

Feed Status: UP
Listen in your browser - HTML5 player(in browser, HTML5)
Click here to listen with your own player(launches your MP3 player)

MMHO 240040Z 34004KT 10SM BKN100 OVC200 35/21 A2998 RMK 8/027 ISOL SC DSNT CB NW

MMHO Flight Activity (Flightaware)

Listeners: 0 out of 1398 total

Hermosillo Tower: 118.700

MMHO Twr/App (Archives)
Hermosillo, Mexico

Feed Status: UP
Listen in your browser - HTML5 player(in browser, HTML5)
Click here to listen with your own player(launches your MP3 player)

MMHO 240040Z 34004KT 10SM BKN100 OVC200 35/21 A2998 RMK 8/027 ISOL SC DSNT CB NW

MMHO Flight Activity (Flightaware)

Listeners: 0 out of 1398 total

Hermosillo Approach/Departure: 121.400
Hermosillo Info: 122.300
Hermosillo Tower: 118.700

MMLP Twr/App (Archives)
La Paz, Mexico

Feed Status: UP
Listen in your browser - HTML5 player(in browser, HTML5)
Click here to listen with your own player(launches your MP3 player)

MMLP 240040Z 21011KT 10SM SKC 32/14 A2995 RMK ISOL CI

MMLP Flight Activity (Flightaware)

Listeners: 0 out of 1398 total

La Paz Approach: 120.600
La Paz Tower: 118.100

MMMD App/Dep (Archives)
Merida, Mexico

Feed Status: UP
Listen in your browser - HTML5 player(in browser, HTML5)
Click here to listen with your own player(launches your MP3 player)


MMMD Flight Activity (Flightaware)

Listeners: 0 out of 1398 total

Merida Approach: 121.200

MMMD Merida Center 125.2/128.2 (Archives)
Merida, Mexico

Feed Status: UP
Listen in your browser - HTML5 player(in browser, HTML5)
Click here to listen with your own player(launches your MP3 player)


MMMD Flight Activity (Flightaware)

Listeners: 0 out of 1398 total

Merida Center: 125.200
Merida Center: 128.200

MMMD Merida Center 125.8/123.75 (Archives)
Merida, Mexico

Feed Status: UP
Listen in your browser - HTML5 player(in browser, HTML5)
Click here to listen with your own player(launches your MP3 player)


MMMD Flight Activity (Flightaware)

Listeners: 0 out of 1398 total

Merida Center: 125.800
Merida Center: 123.750

MMMD Tower (Archives)
Merida, Mexico

Feed Status: UP
Listen in your browser - HTML5 player(in browser, HTML5)
Click here to listen with your own player(launches your MP3 player)


MMMD Flight Activity (Flightaware)

Listeners: 0 out of 1398 total

Merida Tower: 118.300

MMMM Tower (Archives)
Morelia, Mexico

Feed Status: UP
Listen in your browser - HTML5 player(in browser, HTML5)
Click here to listen with your own player(launches your MP3 player)

MMMM 240041Z 10003KT 5SM -RA SCT030CB BKN080 OVC230 16/16 A3033 RMK 60015 8/963 LWR VSBY 1ST QUAD

MMMM Flight Activity (Flightaware)

Listeners: 0 out of 1398 total

Morelia Tower: 118.500

MMMX Approach (Archives)
Mexico City, Mexico

Feed Status: UP
Listen in your browser - HTML5 player(in browser, HTML5)
Click here to listen with your own player(launches your MP3 player)

MMMX 240046Z 06008KT 8SM FEW025CB SCT030 BKN230 21/11 A3040 NOSIG RMK 8/302 HZY PCPN N W

MMMX Flight Activity (Flightaware)

Listeners: 3 out of 1398 total

Mexico City Approach: 121.200

MMMX Twr/App (Archives)
Mexico City, Mexico

Feed Status: UP
Listen in your browser - HTML5 player(in browser, HTML5)
Click here to listen with your own player(launches your MP3 player)

MMMX 240046Z 06008KT 8SM FEW025CB SCT030 BKN230 21/11 A3040 NOSIG RMK 8/302 HZY PCPN N W

MMMX Flight Activity (Flightaware)

Listeners: 10 out of 1398 total

Mexico City Approach: 121.200
Mexico City Arrival (North): 129.650
Mexico City Arrival (South): 119.100
Mexico City Final Approach: 119.750
Mexico City Tower: 118.550

MMMY Tower/Approach
Monterrey, Mexico

Feed Status: DOWN
Offline since: 2021-06-04 09:28:40 UTC

MMMY 240040Z 09009KT 7SM SKC 33/18 A2997 RMK HZY

Monterrey Approach/Departure: 119.750
Monterrey Tower: 118.100

MMPC CTAF (Archives)
Pachuca, Mexico

Feed Status: UP
Listen in your browser - HTML5 player(in browser, HTML5)
Click here to listen with your own player(launches your MP3 player)

MMPC Flight Activity (Flightaware)

Listeners: 0 out of 1398 total

Pachuca CTAF/AFIS: 122.900

MMSP Gnd/Twr/App/Center (Archives)
San Luis Potosi, Mexico

Feed Status: UP
Listen in your browser - HTML5 player(in browser, HTML5)
Click here to listen with your own player(launches your MP3 player)

MMSP 240043Z 07016KT 10SM SKC 22/09 A3032 RMK SC

MMSP Flight Activity (Flightaware)

Listeners: 0 out of 1398 total

AMX Ground Ops: 131.000
Mexico Center (North, Sector 6): 126.000
Mexico Center (Northwest, Sector 7): 123.900
Mexico Center (West, Sector 5): 125.100
Potosi Approach: 127.500
Potosi Tower: 118.900
TAO Ground Ops: 133.600

MMTC Twr/App/Center (Archives)
Torreon, Mexico

Feed Status: UP
Listen in your browser - HTML5 player(in browser, HTML5)
Click here to listen with your own player(launches your MP3 player)

MMTC 240040Z 22010KT 10SM SCT110 BKN250 32/12 A3011 RMK 8/072 SC

MMTC Flight Activity (Flightaware)

Listeners: 0 out of 1398 total

Mazatlan Center: 124.200
Mazatlan Center: 124.400
Mazatlan Center: 128.000
Mexico Center: 123.900
Monterrey Center: 125.600
Monterrey Center: 125.425
Monterrey Center: 127.400
Torreon Approach: 119.500
Torreon Tower: 118.500

MMTJ Approach (Archives)
Tijuana, Mexico

Feed Status: UP
Listen in your browser - HTML5 player(in browser, HTML5)
Click here to listen with your own player(launches your MP3 player)

MMTJ 240043Z 28009KT 6SM BKN200 23/17 A3005 RMK 8/008 HZY

MMTJ Flight Activity (Flightaware)

Listeners: 0 out of 1398 total

Tijuana Approach: 120.300

MMTJ Twr/Ramp (Archives)
Tijuana, Mexico

Feed Status: UP
Listen in your browser - HTML5 player(in browser, HTML5)
Click here to listen with your own player(launches your MP3 player)

MMTJ 240043Z 28009KT 6SM BKN200 23/17 A3005 RMK 8/008 HZY

MMTJ Flight Activity (Flightaware)

Listeners: 2 out of 1398 total

Tijuana Ramp: 126.100
Tijuana Tower: 118.100

MUFH Havana FIR (App/Center) (Archives)
Havana, Cuba

Feed Status: UP
Listen in your browser - HTML5 player(in browser, HTML5)
Click here to listen with your own player(launches your MP3 player)

MUFH Flight Activity (Flightaware)

Listeners: 0 out of 1398 total

Hava Approach: 120.300
Havana Center: 120.250
Havana Center: 123.700
Havana Center: 124.550
Havana Center: 133.700
Havana Center: 135.100

Miami Center (Bahamas Area) (Archives)
Deadman's Cay, Bahamas

Feed Status: UP
Listen in your browser - HTML5 player(in browser, HTML5)
Click here to listen with your own player(launches your MP3 player)


MYLD Flight Activity (Flightaware)

Listeners: 0 out of 1398 total

Miami Center (TBD/Misc):

MYLD Emergency/Guard (Archives)
Deadman's Cay, Bahamas

Feed Status: UP
Listen in your browser - HTML5 player(in browser, HTML5)
Click here to listen with your own player(launches your MP3 player)


MYLD Flight Activity (Flightaware)

Listeners: 0 out of 1398 total

Emergency/Guard: 121.500

MYLD/MYLS CTAF (Archives)
Deadman's Cay, Bahamas

Feed Status: UP
Listen in your browser - HTML5 player(in browser, HTML5)
Click here to listen with your own player(launches your MP3 player)


MYLD Flight Activity (Flightaware)

Listeners: 0 out of 1398 total

Deadmans Cay CTAF: 122.800

MYLD/MYLS CTAF (Archives)
Stella Maris, Bahamas

Feed Status: UP
Listen in your browser - HTML5 player(in browser, HTML5)
Click here to listen with your own player(launches your MP3 player)


MYLD Flight Activity (Flightaware)

Listeners: 0 out of 1398 total

Deadmans Cay CTAF: 122.800

TBPB Gnd/Twr/Radar/Center
Bridgetown, Barbados

Feed Status: DOWN
Offline since: 2021-07-22 17:43:22 UTC

TBPB 240000Z 10011KT 9999 VCSH SCT018 27/24 Q1014 NOSIG

Adams Approach/Departure: 129.350
Adams Approach/Departure: 128.850
Adams Ground: 121.900
Adams Tower: 118.700
Piarco Center: 123.700

TNCM App/Dep (Archives)
Philipsburg, Saint Martin

Feed Status: UP
Listen in your browser - HTML5 player(in browser, HTML5)
Click here to listen with your own player(launches your MP3 player)

TNCM 240000Z 06009KT 9999 FEW016 27/25 Q1017 NOSIG

TNCM Flight Activity (Flightaware)

Listeners: 0 out of 1398 total

Juliana Approach (only when busy): 128.950

TNCM Clearance Delivery (Archives)
Philipsburg, Saint Martin

Feed Status: UP
Listen in your browser - HTML5 player(in browser, HTML5)
Click here to listen with your own player(launches your MP3 player)

TNCM 240000Z 06009KT 9999 FEW016 27/25 Q1017 NOSIG

TNCM Flight Activity (Flightaware)

Listeners: 0 out of 1398 total

Juliana Clearance Delivery: 121.650

TNCM Tower (Archives)
Philipsburg, Saint Martin

Feed Status: UP
Listen in your browser - HTML5 player(in browser, HTML5)
Click here to listen with your own player(launches your MP3 player)

TNCM 240000Z 06009KT 9999 FEW016 27/25 Q1017 NOSIG

TNCM Flight Activity (Flightaware)

Listeners: 0 out of 1398 total

Juliana Tower (TNCM): 118.700

MHLC Gnd/Twr/Center (Archives)
La Ceiba, Honduras

Feed Status: UP
Listen in your browser - HTML5 player(in browser, HTML5)
Click here to listen with your own player(launches your MP3 player)

MHLC 240100Z VRB02KT 9999 FEW025 27/24 Q1016 A3000 NOSIG

MHLC Flight Activity (Flightaware)

Listeners: 0 out of 1398 total

CENAMER: 123.900
CENAMER: 124.300
Goloson Ground: 121.900
Goloson Tower: 118.500
La Ceiba Radio: 128.900

MHLM Gnd/Twr/App (Archives)
San Pedro Sula, Honduras

Feed Status: UP
Listen in your browser - HTML5 player(in browser, HTML5)
Click here to listen with your own player(launches your MP3 player)

MHLM 240100Z 07007KT 9999 SCT025CB SCT250 29/23 Q1016 A3000 NOSIG

MHLM Flight Activity (Flightaware)

Listeners: 0 out of 1398 total

La Mesa Ground: 121.900
La Mesa Tower: 118.200
San Pedro Sula Approach: 119.700

MHRO Gnd/Twr/App/Center (Archives)
Roatan, Honduras

Feed Status: UP
Listen in your browser - HTML5 player(in browser, HTML5)
Click here to listen with your own player(launches your MP3 player)

MHRO 240100Z 05004KT 9999 FEW022TCU SCT200 28/25 Q1016 A3000 NOSIG

MHRO Flight Activity (Flightaware)

Listeners: 0 out of 1398 total

CENAMER (Center): 124.300
La Ceiba Radio: 128.900
Roatan Ground: 121.600
Roatan Tower: 118.100

MHTG ATIS
Tegucigalpa, Honduras

Feed Status: DOWN
Offline since: 2021-03-26 06:57:05 UTC

MHTG 240100Z 03005KT 9999 FEW030TCU 25/16 Q1020 A3012 NOSIG

Toncontin ATIS: 127.750

MHTG Gnd/Twr/App/Ctr/Ops (Archives)
Tegucigalpa, Honduras

Feed Status: UP
Listen in your browser - HTML5 player(in browser, HTML5)
Click here to listen with your own player(launches your MP3 player)

MHTG 240100Z 03005KT 9999 FEW030TCU 25/16 Q1020 A3012 NOSIG

MHTG Flight Activity (Flightaware)

Listeners: 0 out of 1398 total

American Airlines Ops: 130.700
ARINC ACARS: 131.550
Cenamer Center: 123.900
Cenamer Center: 124.300
Cenamer Center: 124.100
CMP Ops: 129.925
Continental Airlines Ops: 129.925
FAH Ground: 122.900
Taca Ops: 131.300
Taca Ops Sal: 130.300
Tecnologias Unidas: 133.000
Tegucigalpa RDO: 126.700
Toncontin Approach: 119.100
Toncontin Ground: 121.900
Toncontin Tower: 118.700

MPMG Ground (Archives)
Panama City, Panama

Feed Status: UP
Listen in your browser - HTML5 player(in browser, HTML5)
Click here to listen with your own player(launches your MP3 player)

MPMG 240100Z VRB01KT 9999 SCT015CB BKN080 28/26 Q1010 TEMPO TS

MPMG Flight Activity (Flightaware)

Listeners: 0 out of 1398 total

Gelabert Ground: 121.700

MPMG Tower (Archives)
Panama City, Panama

Feed Status: UP
Listen in your browser - HTML5 player(in browser, HTML5)
Click here to listen with your own player(launches your MP3 player)

MPMG 240100Z VRB01KT 9999 SCT015CB BKN080 28/26 Q1010 TEMPO TS

MPMG Flight Activity (Flightaware)

Listeners: 0 out of 1398 total

Gelabert Tower: 118.300

Panama App/Dep #1 (Archives)
Panama City, Panama

Feed Status: UP
Listen in your browser - HTML5 player(in browser, HTML5)
Click here to listen with your own player(launches your MP3 player)

MPMG 240100Z VRB01KT 9999 SCT015CB BKN080 28/26 Q1010 TEMPO TS

MPMG Flight Activity (Flightaware)

Listeners: 0 out of 1398 total

Panama Approach: 119.700
Panama Departure: 119.200

Panama App/Dep #2 (Archives)
Panama City, Panama

Feed Status: UP
Listen in your browser - HTML5 player(in browser, HTML5)
Click here to listen with your own player(launches your MP3 player)

MPPA 240100Z 20010KT 3200 RA SCT013CB SCT080 26/25 Q1010 RWY WET

MPPA Flight Activity (Flightaware)

Listeners: 0 out of 1398 total

Panama Approach: 119.700
Panama Departure: 119.200

Panama App/Dep #3 (Archives)
Panama City, Panama

Feed Status: UP
Listen in your browser - HTML5 player(in browser, HTML5)
Click here to listen with your own player(launches your MP3 player)

MPTO 240100Z 00000KT 9000 -RA SCT017CB BKN080 25/24 Q1009 RWY WET NOSIG

MPTO Flight Activity (Flightaware)

Listeners: 0 out of 1398 total

Panama Approach: 119.700
Panama Departure: 119.200

Panama Approach #1 (Archives)
Panama City, Panama

Feed Status: UP
Listen in your browser - HTML5 player(in browser, HTML5)
Click here to listen with your own player(launches your MP3 player)

MPMG 240100Z VRB01KT 9999 SCT015CB BKN080 28/26 Q1010 TEMPO TS

MPMG Flight Activity (Flightaware)

Listeners: 0 out of 1398 total

Panama Approach: 119.700

Panama Center #1
Panama City, Panama

Feed Status: DOWN
Offline since: 2021-06-07 17:47:05 UTC

MPMG 240100Z VRB01KT 9999 SCT015CB BKN080 28/26 Q1010 TEMPO TS

Panama Center: 134.900
Panama Center (North): 133.300
Panama Center (North): 125.500
Panama Center (South): 123.300
Panama Center (South): 133.000

Panama Center #2 (Archives)
Panama City, Panama

Feed Status: UP
Listen in your browser - HTML5 player(in browser, HTML5)
Click here to listen with your own player(launches your MP3 player)

MPPA 240100Z 20010KT 3200 RA SCT013CB SCT080 26/25 Q1010 RWY WET

MPPA Flight Activity (Flightaware)

Listeners: 0 out of 1398 total

Panama Center: 134.900
Panama Center (North): 125.500
Panama Center (North): 133.300
Panama Center (South): 123.300
Panama Center (South): 133.000

Panama Departure #1 (Archives)
Panama City, Panama

Feed Status: UP
Listen in your browser - HTML5 player(in browser, HTML5)
Click here to listen with your own player(launches your MP3 player)

MPMG 240100Z VRB01KT 9999 SCT015CB BKN080 28/26 Q1010 TEMPO TS

MPMG Flight Activity (Flightaware)

Listeners: 0 out of 1398 total

Panama Departure: 119.200

Panama Radio #1 (Archives)
Panama City, Panama

Feed Status: UP
Listen in your browser - HTML5 player(in browser, HTML5)
Click here to listen with your own player(launches your MP3 player)

MPMG 240100Z VRB01KT 9999 SCT015CB BKN080 28/26 Q1010 TEMPO TS

MPMG Flight Activity (Flightaware)

Listeners: 0 out of 1398 total

Panama Radio: 123.600
Panama Radio: 126.900

Panama Traffic Advisory #1 (Archives)
Panama City, Panama

Feed Status: UP
Listen in your browser - HTML5 player(in browser, HTML5)
Click here to listen with your own player(launches your MP3 player)

MPMG 240100Z VRB01KT 9999 SCT015CB BKN080 28/26 Q1010 TEMPO TS

MPMG Flight Activity (Flightaware)

Listeners: 0 out of 1398 total

Panama Traffic Advisory: 121.200

MPPA Ground (Archives)
Panama City, Panama

Feed Status: UP
Listen in your browser - HTML5 player(in browser, HTML5)
Click here to listen with your own player(launches your MP3 player)

MPPA 240100Z 20010KT 3200 RA SCT013CB SCT080 26/25 Q1010 RWY WET

MPPA Flight Activity (Flightaware)

Listeners: 0 out of 1398 total

Pacifico Ground: 121.100

MPPA Ground/Tower (Archives)
Panama City, Panama

Feed Status: UP
Listen in your browser - HTML5 player(in browser, HTML5)
Click here to listen with your own player(launches your MP3 player)

MPPA 240100Z 20010KT 3200 RA SCT013CB SCT080 26/25 Q1010 RWY WET

MPPA Flight Activity (Flightaware)

Listeners: 0 out of 1398 total

Pacifico Ground: 121.100
Pacifico Tower: 118.900

MPPA Tower (Archives)
Panama City, Panama

Feed Status: UP
Listen in your browser - HTML5 player(in browser, HTML5)
Click here to listen with your own player(launches your MP3 player)

MPPA 240100Z 20010KT 3200 RA SCT013CB SCT080 26/25 Q1010 RWY WET

MPPA Flight Activity (Flightaware)

Listeners: 0 out of 1398 total

Pacifico Tower: 118.900

Panama App/Dep #1 (Archives)
Panama City, Panama

Feed Status: UP
Listen in your browser - HTML5 player(in browser, HTML5)
Click here to listen with your own player(launches your MP3 player)

MPMG 240100Z VRB01KT 9999 SCT015CB BKN080 28/26 Q1010 TEMPO TS

MPMG Flight Activity (Flightaware)

Listeners: 0 out of 1398 total

Panama Approach: 119.700
Panama Departure: 119.200

Panama App/Dep #2 (Archives)
Panama City, Panama

Feed Status: UP
Listen in your browser - HTML5 player(in browser, HTML5)
Click here to listen with your own player(launches your MP3 player)

MPPA 240100Z 20010KT 3200 RA SCT013CB SCT080 26/25 Q1010 RWY WET

MPPA Flight Activity (Flightaware)

Listeners: 0 out of 1398 total

Panama Approach: 119.700
Panama Departure: 119.200

Panama App/Dep #3 (Archives)
Panama City, Panama

Feed Status: UP
Listen in your browser - HTML5 player(in browser, HTML5)
Click here to listen with your own player(launches your MP3 player)

MPTO 240100Z 00000KT 9000 -RA SCT017CB BKN080 25/24 Q1009 RWY WET NOSIG

MPTO Flight Activity (Flightaware)

Listeners: 0 out of 1398 total

Panama Approach: 119.700
Panama Departure: 119.200

Panama Approach #1 (Archives)
Panama City, Panama

Feed Status: UP
Listen in your browser - HTML5 player(in browser, HTML5)
Click here to listen with your own player(launches your MP3 player)

MPMG 240100Z VRB01KT 9999 SCT015CB BKN080 28/26 Q1010 TEMPO TS

MPMG Flight Activity (Flightaware)

Listeners: 0 out of 1398 total

Panama Approach: 119.700

Panama Center #1
Panama City, Panama

Feed Status: DOWN
Offline since: 2021-06-07 17:47:05 UTC

MPMG 240100Z VRB01KT 9999 SCT015CB BKN080 28/26 Q1010 TEMPO TS

Panama Center: 134.900
Panama Center (North): 133.300
Panama Center (North): 125.500
Panama Center (South): 123.300
Panama Center (South): 133.000

Panama Center #2 (Archives)
Panama City, Panama

Feed Status: UP
Listen in your browser - HTML5 player(in browser, HTML5)
Click here to listen with your own player(launches your MP3 player)

MPPA 240100Z 20010KT 3200 RA SCT013CB SCT080 26/25 Q1010 RWY WET

MPPA Flight Activity (Flightaware)

Listeners: 0 out of 1398 total

Panama Center: 134.900
Panama Center (North): 125.500
Panama Center (North): 133.300
Panama Center (South): 123.300
Panama Center (South): 133.000

Panama Departure #1 (Archives)
Panama City, Panama

Feed Status: UP
Listen in your browser - HTML5 player(in browser, HTML5)
Click here to listen with your own player(launches your MP3 player)

MPMG 240100Z VRB01KT 9999 SCT015CB BKN080 28/26 Q1010 TEMPO TS

MPMG Flight Activity (Flightaware)

Listeners: 0 out of 1398 total

Panama Departure: 119.200

Panama Radio #1 (Archives)
Panama City, Panama

Feed Status: UP
Listen in your browser - HTML5 player(in browser, HTML5)
Click here to listen with your own player(launches your MP3 player)

MPMG 240100Z VRB01KT 9999 SCT015CB BKN080 28/26 Q1010 TEMPO TS

MPMG Flight Activity (Flightaware)

Listeners: 0 out of 1398 total

Panama Radio: 123.600
Panama Radio: 126.900

Panama Traffic Advisory #1 (Archives)
Panama City, Panama

Feed Status: UP
Listen in your browser - HTML5 player(in browser, HTML5)
Click here to listen with your own player(launches your MP3 player)

MPMG 240100Z VRB01KT 9999 SCT015CB BKN080 28/26 Q1010 TEMPO TS

MPMG Flight Activity (Flightaware)

Listeners: 0 out of 1398 total

Panama Traffic Advisory: 121.200

MPTO ATIS (Archives)
Panama City, Panama

Feed Status: UP
Listen in your browser - HTML5 player(in browser, HTML5)
Click here to listen with your own player(launches your MP3 player)

MPTO 240100Z 00000KT 9000 -RA SCT017CB BKN080 25/24 Q1009 RWY WET NOSIG

MPTO Flight Activity (Flightaware)

Listeners: 0 out of 1398 total

Panama ATIS: 127.700

MPTO Clearance Delivery (Archives)
Panama City, Panama

Feed Status: UP
Listen in your browser - HTML5 player(in browser, HTML5)
Click here to listen with your own player(launches your MP3 player)

MPTO 240100Z 00000KT 9000 -RA SCT017CB BKN080 25/24 Q1009 RWY WET NOSIG

MPTO Flight Activity (Flightaware)

Listeners: 0 out of 1398 total

Panama Clearance Delivery: 129.800

MPTO Del/Ground (Archives)
Panama City, Panama

Feed Status: UP
Listen in your browser - HTML5 player(in browser, HTML5)
Click here to listen with your own player(launches your MP3 player)

MPTO 240100Z 00000KT 9000 -RA SCT017CB BKN080 25/24 Q1009 RWY WET NOSIG

MPTO Flight Activity (Flightaware)

Listeners: 0 out of 1398 total

Panama Clearance Delivery: 129.800
Panama Ground: 121.900

MPTO Ground (Archives)
Panama City, Panama

Feed Status: UP
Listen in your browser - HTML5 player(in browser, HTML5)
Click here to listen with your own player(launches your MP3 player)

MPTO 240100Z 00000KT 9000 -RA SCT017CB BKN080 25/24 Q1009 RWY WET NOSIG

MPTO Flight Activity (Flightaware)

Listeners: 0 out of 1398 total

Panama Ground: 121.900

MPTO Ground/Tower (Archives)
Panama City, Panama

Feed Status: UP
Listen in your browser - HTML5 player(in browser, HTML5)
Click here to listen with your own player(launches your MP3 player)

MPTO 240100Z 00000KT 9000 -RA SCT017CB BKN080 25/24 Q1009 RWY WET NOSIG

MPTO Flight Activity (Flightaware)

Listeners: 0 out of 1398 total

Panama Ground: 121.900
Panama Tower: 118.100

MPTO Tower (Archives)
Panama City, Panama

Feed Status: UP
Listen in your browser - HTML5 player(in browser, HTML5)
Click here to listen with your own player(launches your MP3 player)

MPTO 240100Z 00000KT 9000 -RA SCT017CB BKN080 25/24 Q1009 RWY WET NOSIG

MPTO Flight Activity (Flightaware)

Listeners: 1 out of 1398 total

Panama Tower: 118.100

Panama App/Dep #1 (Archives)
Panama City, Panama

Feed Status: UP
Listen in your browser - HTML5 player(in browser, HTML5)
Click here to listen with your own player(launches your MP3 player)

MPMG 240100Z VRB01KT 9999 SCT015CB BKN080 28/26 Q1010 TEMPO TS

MPMG Flight Activity (Flightaware)

Listeners: 0 out of 1398 total

Panama Approach: 119.700
Panama Departure: 119.200

Panama App/Dep #2 (Archives)
Panama City, Panama

Feed Status: UP
Listen in your browser - HTML5 player(in browser, HTML5)
Click here to listen with your own player(launches your MP3 player)

MPPA 240100Z 20010KT 3200 RA SCT013CB SCT080 26/25 Q1010 RWY WET

MPPA Flight Activity (Flightaware)

Listeners: 0 out of 1398 total

Panama Approach: 119.700
Panama Departure: 119.200

Panama App/Dep #3 (Archives)
Panama City, Panama

Feed Status: UP
Listen in your browser - HTML5 player(in browser, HTML5)
Click here to listen with your own player(launches your MP3 player)

MPTO 240100Z 00000KT 9000 -RA SCT017CB BKN080 25/24 Q1009 RWY WET NOSIG

MPTO Flight Activity (Flightaware)

Listeners: 0 out of 1398 total

Panama Approach: 119.700
Panama Departure: 119.200

Panama Approach #1 (Archives)
Panama City, Panama

Feed Status: UP
Listen in your browser - HTML5 player(in browser, HTML5)
Click here to listen with your own player(launches your MP3 player)

MPMG 240100Z VRB01KT 9999 SCT015CB BKN080 28/26 Q1010 TEMPO TS

MPMG Flight Activity (Flightaware)

Listeners: 0 out of 1398 total

Panama Approach: 119.700

Panama Center #1
Panama City, Panama

Feed Status: DOWN
Offline since: 2021-06-07 17:47:05 UTC

MPMG 240100Z VRB01KT 9999 SCT015CB BKN080 28/26 Q1010 TEMPO TS

Panama Center: 134.900
Panama Center (North): 133.300
Panama Center (North): 125.500
Panama Center (South): 123.300
Panama Center (South): 133.000

Panama Center #2 (Archives)
Panama City, Panama

Feed Status: UP
Listen in your browser - HTML5 player(in browser, HTML5)
Click here to listen with your own player(launches your MP3 player)

MPPA 240100Z 20010KT 3200 RA SCT013CB SCT080 26/25 Q1010 RWY WET

MPPA Flight Activity (Flightaware)

Listeners: 0 out of 1398 total

Panama Center: 134.900
Panama Center (North): 125.500
Panama Center (North): 133.300
Panama Center (South): 123.300
Panama Center (South): 133.000

Panama Departure #1 (Archives)
Panama City, Panama

Feed Status: UP
Listen in your browser - HTML5 player(in browser, HTML5)
Click here to listen with your own player(launches your MP3 player)

MPMG 240100Z VRB01KT 9999 SCT015CB BKN080 28/26 Q1010 TEMPO TS

MPMG Flight Activity (Flightaware)

Listeners: 0 out of 1398 total

Panama Departure: 119.200

Panama Radio #1 (Archives)
Panama City, Panama

Feed Status: UP
Listen in your browser - HTML5 player(in browser, HTML5)
Click here to listen with your own player(launches your MP3 player)

MPMG 240100Z VRB01KT 9999 SCT015CB BKN080 28/26 Q1010 TEMPO TS

MPMG Flight Activity (Flightaware)

Listeners: 0 out of 1398 total

Panama Radio: 123.600
Panama Radio: 126.900

Panama Traffic Advisory #1 (Archives)
Panama City, Panama

Feed Status: UP
Listen in your browser - HTML5 player(in browser, HTML5)
Click here to listen with your own player(launches your MP3 player)

MPMG 240100Z VRB01KT 9999 SCT015CB BKN080 28/26 Q1010 TEMPO TS

MPMG Flight Activity (Flightaware)

Listeners: 0 out of 1398 total

Panama Traffic Advisory: 121.200

CENAMER/Panama ACC (Archives)
San Jose, Costa Rica

Feed Status: UP
Listen in your browser - HTML5 player(in browser, HTML5)
Click here to listen with your own player(launches your MP3 player)

MROC 240100Z 11002KT 9999 -DZ BCFG FEW030 BKN120 21/21 A3004 NOSIG

MROC Flight Activity (Flightaware)

Listeners: 0 out of 1398 total

Central American Center (CENAMER Control): 124.100
Central American Center (CENAMER Control): 123.900
Panama Center: 133.000

MROC Del/Gnd/Twr (Archives)
San Jose, Costa Rica

Feed Status: UP
Listen in your browser - HTML5 player(in browser, HTML5)
Click here to listen with your own player(launches your MP3 player)

MROC 240100Z 11002KT 9999 -DZ BCFG FEW030 BKN120 21/21 A3004 NOSIG

MROC Flight Activity (Flightaware)

Listeners: 0 out of 1398 total

Coco Clearance Delivery/Ground: 121.900
Coco Tower: 118.600

MROC Del/Gnd/Twr/App/Center/Misc (Archives)
San Jose, Costa Rica

Feed Status: UP
Listen in your browser - HTML5 player(in browser, HTML5)
Click here to listen with your own player(launches your MP3 player)

MROC 240100Z 11002KT 9999 -DZ BCFG FEW030 BKN120 21/21 A3004 NOSIG

MROC Flight Activity (Flightaware)

Listeners: 8 out of 1398 total

Coco Center (Control over CR Airspace): 119.600
Coco Clearance Delivery: 121.300
Coco Ground: 121.900
Coco Terminal Control: 120.500
Coco Tower: 118.600
Coco UNICOM: 126.800

MRPV Ground/Tower (Archives)
San Jose, Costa Rica

Feed Status: UP
Listen in your browser - HTML5 player(in browser, HTML5)
Click here to listen with your own player(launches your MP3 player)

MRPV 240000Z 13004KT 9999 FEW010 BKN120 21/18 A3004 NOSIG

MRPV Flight Activity (Flightaware)

Listeners: 1 out of 1398 total

Pavas Ground: 121.700
Pavas Tower: 118.300

MSLP Gnd/Twr/App (Archives)
San Salvador, El Salvador

Feed Status: UP
Listen in your browser - HTML5 player(in browser, HTML5)
Click here to listen with your own player(launches your MP3 player)

MSLP 240050Z 23003KT 9999 FEW050 28/24 Q1012 A2990 NOSIG

MSLP Flight Activity (Flightaware)

Listeners: 2 out of 1398 total

Comalapa Ground: 121.700
Comalapa Tower: 118.000
Compalapa Approach: 119.900

MSLP Gnd/Twr/App/Center (Archives)
San Salvador, El Salvador

Feed Status: UP
Listen in your browser - HTML5 player(in browser, HTML5)
Click here to listen with your own player(launches your MP3 player)

MSLP 240050Z 23003KT 9999 FEW050 28/24 Q1012 A2990 NOSIG

MSLP Flight Activity (Flightaware)

Listeners: 0 out of 1398 total

Avianca Ops: 123.500
CCA: 119.300
CENAMER: 124.100
Comalapa Authorizations: 121.250
Comalapa Departure: 123.900
Comalapa Ground: 121.700
Comalapa Tower: 118.000
Compalapa Approach: 119.900
Ilopango Tower: 118.300
TACA Ops: 130.500

MSSS Tower
San Salvador, El Salvador

Feed Status: DOWN
Offline since: 2021-07-04 08:52:40 UTC

MSSS 232350Z 35007KT 9999 SCT060 28/20 Q1016 A3002 HZ

Ilopango Tower: 118.300